| time (UTC) | temp F | wind direction | speed MPH | gust MPH | rain 1hr in | rain 24hr in | rain mn in | humidity % | barometer mb |
| 20260507003038 | 94 | 95 | 7.0 | 17.0 | 0.00 | 0.00 | 0.00 | 66 | 1005.4 |
| 20260507001544 | 96 | 68 | 5.0 | 13.0 | 0.00 | 0.00 | 0.00 | 58 | 1005.1 |
| 20260507000051 | 97 | 41 | 3.0 | 9.0 | 0.00 | 0.00 | 0.00 | 56 | 1005.0 |
| 20260506234542 | 98 | 37 | 4.0 | 10.0 | 0.00 | 0.00 | 0.00 | 55 | 1004.8 |
| 20260506233040 | 98 | 39 | 4.0 | 11.0 | 0.00 | 0.00 | 0.00 | 55 | 1004.8 |
| 20260506231540 | 98 | 26 | 5.0 | 13.0 | 0.00 | 0.00 | 0.00 | 56 | 1004.7 |
| 20260506230049 | 98 | 38 | 3.0 | 13.0 | 0.00 | 0.00 | 0.00 | 56 | 1004.5 |
| 20260506224556 | 99 | 20 | 5.0 | 11.0 | 0.00 | 0.00 | 0.00 | 55 | 1004.6 |
| 20260506223041 | 99 | 32 | 7.0 | 13.0 | 0.00 | 0.00 | 0.00 | 55 | 1004.6 |
| 20260506221538 | 100 | 42 | 4.0 | 11.0 | 0.00 | 0.00 | 0.00 | 54 | 1004.6 |
| 20260506220039 | 99 | 360 | 7.0 | 15.0 | 0.00 | 0.00 | 0.00 | 54 | 1004.7 |
| 20260506214534 | 100 | 52 | 5.0 | 12.0 | 0.00 | 0.00 | 0.00 | 55 | 1004.8 |
| 20260506213044 | 99 | 34 | 4.0 | 11.0 | 0.00 | 0.00 | 0.00 | 56 | 1004.9 |
| 20260506211540 | 100 | 360 | 4.0 | 14.0 | 0.00 | 0.00 | 0.00 | 54 | 1004.9 |
| 20260506210041 | 99 | 80 | 4.0 | 10.0 | 0.00 | 0.00 | 0.00 | 56 | 1005.0 |
| 20260506204534 | 98 | 55 | 3.0 | 10.0 | 0.00 | 0.00 | 0.00 | 57 | 1005.3 |
| 20260506203047 | 97 | 348 | 3.0 | 9.0 | 0.00 | 0.00 | 0.00 | 57 | 1005.4 |
| 20260506201543 | 98 | 5 | 4.0 | 10.0 | 0.00 | 0.00 | 0.00 | 57 | 1005.5 |
| 20260506200038 | 97 | 5 | 5.0 | 11.0 | 0.00 | 0.00 | 0.00 | 58 | 1005.6 |
| 20260506194555 | 97 | 5 | 2.0 | 8.0 | 0.00 | 0.00 | 0.00 | 59 | 1005.8 |
| 20260506193037 | 95 | 104 | 1.0 | 5.0 | 0.00 | 0.00 | 0.00 | 62 | 1006.0 |
| 20260506191545 | 94 | 105 | 2.0 | 8.0 | 0.00 | 0.00 | 0.00 | 64 | 1006.3 |
| 20260506190044 | 93 | 320 | 2.0 | 9.0 | 0.00 | 0.00 | 0.00 | 63 | 1006.5 |
| 20260506184539 | 93 | 323 | 1.0 | 6.0 | 0.00 | 0.00 | 0.00 | 65 | 1006.6 |
| 20260506183038 | 91 | 327 | 2.0 | 6.0 | 0.00 | 0.00 | 0.00 | 67 | 1006.8 |
| 20260506181545 | 91 | 170 | 1.0 | 8.0 | 0.00 | 0.00 | 0.00 | 67 | 1007.0 |
| 20260506180048 | 91 | 171 | 5.0 | 11.0 | 0.00 | 0.00 | 0.00 | 67 | 1006.9 |
| 20260506174540 | 90 | 98 | 4.0 | 10.0 | 0.00 | 0.00 | 0.00 | 70 | 1007.1 |
| 20260506173045 | 89 | 136 | 5.0 | 12.0 | 0.00 | 0.00 | 0.00 | 70 | 1007.3 |
| 20260506171551 | 88 | 110 | 8.0 | 12.0 | 0.00 | 0.00 | 0.00 | 71 | 1007.3 |
| 20260506170040 | 87 | 132 | 9.0 | 14.0 | 0.00 | 0.00 | 0.00 | 72 | 1007.4 |
| 20260506164541 | 87 | 130 | 6.0 | 14.0 | 0.00 | 0.00 | 0.00 | 73 | 1007.4 |
| 20260506163043 | 87 | 145 | 7.0 | 14.0 | 0.00 | 0.00 | 0.00 | 73 | 1007.4 |
| 20260506161540 | 86 | 132 | 7.0 | 12.0 | 0.00 | 0.00 | 0.00 | 74 | 1007.1 |
| 20260506160041 | 85 | 153 | 8.0 | 14.0 | 0.00 | 0.00 | 0.00 | 75 | 1007.2 |
| 20260506154608 | 84 | 130 | 5.0 | 12.0 | 0.00 | 0.00 | 0.00 | 77 | 1007.3 |
| 20260506153043 | 83 | 134 | 7.0 | 12.0 | 0.00 | 0.00 | 0.00 | 78 | 1007.3 |
| 20260506151541 | 82 | 163 | 5.0 | 13.0 | 0.00 | 0.00 | 0.00 | 80 | 1007.4 |
| 20260506150042 | 82 | 136 | 6.0 | 11.0 | 0.00 | 0.00 | 0.00 | 81 | 1007.4 |
| 20260506144547 | 81 | 146 | 5.0 | 14.0 | 0.00 | 0.00 | 0.00 | 83 | 1007.6 |
| 20260506143034 | 80 | 153 | 7.0 | 14.0 | 0.00 | 0.00 | 0.00 | 83 | 1007.8 |
| 20260506141541 | 80 | 132 | 8.0 | 11.0 | 0.00 | 0.00 | 0.00 | 83 | 1007.9 |
| 20260506140055 | 80 | 132 | 5.0 | 10.0 | 0.00 | 0.00 | 0.00 | 84 | 1007.6 |
| 20260506134542 | 80 | 137 | 3.0 | 9.0 | 0.00 | 0.00 | 0.00 | 85 | 1007.7 |
| 20260506133045 | 80 | 134 | 3.0 | 7.0 | 0.00 | 0.00 | 0.00 | 86 | 1007.7 |
| 20260506131543 | 79 | 142 | 3.0 | 9.0 | 0.00 | 0.00 | 0.00 | 86 | 1007.8 |
| 20260506130045 | 80 | 135 | 1.0 | 4.0 | 0.00 | 0.00 | 0.00 | 86 | 1007.7 |
| 20260506124541 | 80 | 135 | 2.0 | 4.0 | 0.00 | 0.00 | 0.00 | 85 | 1007.4 |
| 20260506123040 | 80 | 0 | 1.0 | 5.0 | 0.00 | 0.00 | 0.00 | 85 | 1007.2 |
| 20260506121537 | 80 | 150 | 1.0 | 7.0 | 0.00 | 0.00 | 0.00 | 85 | 1006.9 |
| 20260506120040 | 80 | 143 | 4.0 | 8.0 | 0.00 | 0.00 | 0.00 | 85 | 1006.5 |
| 20260506114542 | 80 | 160 | 3.0 | 8.0 | 0.00 | 0.00 | 0.00 | 85 | 1006.0 |
| 20260506113047 | 80 | 146 | 4.0 | 10.0 | 0.00 | 0.00 | 0.00 | 85 | 1006.1 |
| 20260506111537 | 80 | 154 | 6.0 | 11.0 | 0.00 | 0.00 | 0.00 | 84 | 1005.9 |
| 20260506110038 | 80 | 112 | 4.0 | 9.0 | 0.00 | 0.00 | 0.00 | 84 | 1005.7 |
| 20260506104549 | 80 | 136 | 4.0 | 9.0 | 0.00 | 0.00 | 0.00 | 84 | 1005.5 |
| 20260506103042 | 80 | 129 | 5.0 | 11.0 | 0.00 | 0.00 | 0.00 | 84 | 1005.2 |
| 20260506101547 | 80 | 144 | 5.0 | 9.0 | 0.00 | 0.00 | 0.00 | 84 | 1005.1 |
| 20260506100040 | 80 | 129 | 5.0 | 11.0 | 0.00 | 0.00 | 0.00 | 84 | 1005.0 |
| 20260506094536 | 80 | 147 | 4.0 | 12.0 | 0.00 | 0.00 | 0.00 | 84 | 1004.9 |
| 20260506093042 | 80 | 104 | 7.0 | 14.0 | 0.00 | 0.00 | 0.00 | 84 | 1005.0 |
| 20260506091541 | 80 | 146 | 9.0 | 14.0 | 0.00 | 0.00 | 0.00 | 84 | 1004.9 |
| 20260506090040 | 80 | 159 | 10.0 | 16.0 | 0.00 | 0.00 | 0.00 | 83 | 1005.2 |
| 20260506084546 | 80 | 125 | 9.0 | 15.0 | 0.00 | 0.00 | 0.00 | 83 | 1005.2 |
| 20260506083037 | 80 | 146 | 8.0 | 15.0 | 0.00 | 0.00 | 0.00 | 83 | 1005.2 |
| 20260506081542 | 80 | 142 | 10.0 | 19.0 | 0.00 | 0.00 | 0.00 | 83 | 1005.4 |
| 20260506073039 | 80 | 142 | 9.0 | 18.0 | 0.00 | 0.00 | 0.00 | 84 | 1005.7 |
| 20260506071545 | 80 | 126 | 9.0 | 20.0 | 0.00 | 0.00 | 0.00 | 84 | 1005.7 |
| 20260506061554 | 80 | 130 | 11.0 | 17.0 | 0.00 | 0.00 | 0.00 | 85 | 1006.1 |
| 20260506044537 | 80 | 130 | 9.0 | 21.0 | 0.00 | 0.00 | 0.00 | 83 | 1006.8 |
| 20260506043040 | 81 | 134 | 12.0 | 20.0 | 0.00 | 0.00 | 0.00 | 83 | 1006.7 |
| 20260506041540 | 81 | 119 | 9.0 | 20.0 | 0.00 | 0.00 | 0.00 | 82 | 1006.8 |
| 20260506040041 | 81 | 124 | 10.0 | 19.0 | 0.00 | 0.00 | 0.00 | 82 | 1006.8 |
| 20260506034539 | 81 | 115 | 9.0 | 21.0 | 0.00 | 0.00 | 0.00 | 82 | 1006.6 |
| 20260506033047 | 81 | 109 | 10.0 | 23.0 | 0.00 | 0.00 | 0.00 | 81 | 1006.3 |
| 20260506031542 | 81 | 148 | 12.0 | 21.0 | 0.00 | 0.00 | 0.00 | 81 | 1006.0 |
| 20260506030042 | 81 | 137 | 12.0 | 24.0 | 0.00 | 0.00 | 0.00 | 81 | 1005.9 |
| 20260506024544 | 81 | 123 | 11.0 | 24.0 | 0.00 | 0.00 | 0.00 | 81 | 1005.5 |
| 20260506023049 | 81 | 123 | 10.0 | 18.0 | 0.00 | 0.00 | 0.00 | 80 | 1005.4 |
| 20260506021537 | 82 | 116 | 12.0 | 22.0 | 0.00 | 0.00 | 0.00 | 80 | 1005.3 |
| 20260506020042 | 82 | 128 | 9.0 | 22.0 | 0.00 | 0.00 | 0.00 | 79 | 1005.1 |
| 20260506014543 | 82 | 148 | 13.0 | 24.0 | 0.00 | 0.00 | 0.00 | 78 | 1004.8 |
| 20260506013040 | 82 | 130 | 13.0 | 21.0 | 0.00 | 0.00 | 0.00 | 78 | 1004.6 |
| 20260506011535 | 83 | 131 | 8.0 | 19.0 | 0.00 | 0.00 | 0.00 | 77 | 1004.4 |
| 20260506010054 | 83 | 115 | 13.0 | 21.0 | 0.00 | 0.00 | 0.00 | 76 | 1004.2 |
| 20260506004547 | 84 | 107 | 12.0 | 23.0 | 0.00 | 0.00 | 0.00 | 75 | 1004.1 |